星链-11714 (STARLINK-11714)

导读 | 豆包AI

STARLINK-11714是美国SpaceX星链(Starlink)星座中的一颗卫星,于2025年5月24日发射。星链项目旨在构建全球卫星互联网星座,为全球偏远、欠发达地区提供高速低延迟的网络接入服务,该卫星的发射进一步扩充了星链星座的在轨规模,推动项目组网进程。

基本信息
目录编号:
64134
目录名称:
STARLINK-11714
国际标识:
2025-111M
轨道中心:
EARTH
卫星名称:
星链-11714
卫星全名:
星链-11714 (STARLINK-11714)
卫星状态:
在轨 (已飞行294 天)
发射日期:
2025-05-24 UTC
国别 :
美国 (US)
星等 :
--
轨道信息
数据来源 国际轨道数据
星历时间: 2026-03-14T06:45:35+0800
20小时前
查看轨道信息
半长轴: 6734.072km
偏心率: 0.0001087
轨道倾角: 42.999°
近地点辐角 167.815°
升交点赤经 307.749°
平近点角 192.274°
近地点: 355.203km
远地点: 356.667km
周期: 91.659分钟
每日圈数: 15.710362
详细信息
固有亮度:
5
最大亮度:
2.5
卫星平台:
Starlink V1.0
覆盖范围:
全球
运营商:
太空探索技术公司
运营商所在国:
美国
制造商(研发单位):
太空探索技术公司
制造商所在国:
美国
使用方式:
暂无
卫星简介
Starlink 计划是 SpaceX 推出的全球卫星互联网项目,通过发射低轨道卫星,为全球尤其是偏远地区提供高速、低延迟的互联网服务。自 2019 年起,Starlink 已部署数千颗卫星,旨在缩小全球数字鸿沟,推动互联网普及。该项目还为军事、航空等行业提供通信支持,带来广泛经济效益。
2D轨道图
3D轨道图
轨道高度分析图
轨道倾角分析图
轨道综合分析图
查看轨道综合分析图